[[{"header":{"parameterUnit":"m.s-1","parameterCategory":1,"la1":30.2991,"la2":30.254,"lo1":-89.0895,"lo2":-89.0444,"dy":0.0017,"dx":0.0017,"nx":28,"ny":28,"refTime":"2025-03-04T09:00:00:Z","depth":0,"parameterNumber":2,"parameterNumberName":"U-component_of_WINDS"},"data":[0,0,0,0,0,0,0,0,0,0,0,0,0,0,0,0,0,0,0,0,0,0,0,0,0,0,0,0,0,0,0,0,0,0,0,0,0,0,0,0,0,0,0,0,0,0,0,0,0,0,0,0,0,0,0,0,0,0,7.5313,7.5315,0,7.5456,7.5457,7.5459,7.5392,7.5389,7.5385,7.5382,7.5529,7.5536,7.5543,0,0,0,0,0,0,0,0,0,0,0,0,0,7.4985,7.4991,7.5313,7.5315,7.5317,7.5455,7.5457,7.5459,7.5393,7.5389,7.5384,7.538,7.5527,7.5535,7.5544,0,0,0,0,0,0,0,0,0,0,0,0,0,7.5128,7.4993,7.5313,7.53,7.53,7.5455,7.5457,7.546,7.5394,7.5388,7.5383,7.5378,7.5524,7.5534,7.5545,7.5721,0,0,7.5578,7.5583,0,0,0,0,0,0,0,0,7.512,7.514,7.53,7.5301,7.5302,7.5401,7.5396,7.5547,7.5395,7.5359,7.5382,7.5375,7.5491,7.5504,7.5543,7.5727,7.5734,7.5579,7.5586,7.5591,7.5594,0,0,0,0,0,0,0,7.511,7.5133,7.5369,7.5303,7.5304,7.5288,7.5302,7.5424,7.5453,7.5361,7.5357,7.5374,7.549,7.5532,7.5546,7.5736,7.5579,7.5589,7.5596,7.56,7.6073,7.6079,0,0,0,0,0,0,7.51,7.5125,7.5365,7.5374,7.5196,7.5298,7.5314,7.5374,7.5452,7.5458,7.5379,7.5371,7.5516,7.5533,7.5551,7.5761,7.5591,7.5601,7.5607,7.6067,7.6074,7.6081,0,0,0,0,0,0,7.5093,7.5122,7.5359,7.5248,7.5277,7.531,7.5378,7.538,7.5422,7.5465,7.547,7.5417,7.5513,7.5535,7.5679,7.5766,7.5606,7.5616,7.606,7.6069,7.6078,7.6185,0,0,0,0,0,0,7.5084,7.512,7.5187,7.525,7.5284,7.5485,7.5383,7.5387,7.5441,7.5432,7.5502,7.5508,7.551,7.5663,7.569,7.5778,7.5624,7.6052,7.6064,7.6075,7.6173,7.6196,7.6216,0,0,0,0,0,7.5073,7.5211,7.519,7.5219,7.5367,7.549,7.5509,7.5508,7.5448,7.5516,7.5543,7.5506,7.5752,7.5678,7.5708,7.58,7.6047,7.6061,7.6074,7.6164,7.6192,7.6215,0,0,0,0,0,0,7.5156,7.5219,7.5197,7.536,7.542,7.5478,7.5563,7.5538,7.5616,7.5604,7.5601,7.5617,7.5766,7.5798,7.5714,7.5975,7.589,7.591,7.5949,7.5975,7.5996,7.5985,7.5633,0,0,0,0,0,7.5194,7.5288,7.5338,7.5477,7.5508,7.5531,7.5584,7.5579,7.5641,7.5666,7.5704,7.5767,7.5858,7.5919,7.6005,7.6178,7.6192,7.6256,7.6277,7.6294,7.6312,7.6406,7.6435,7.6125,7.6125,7.6125,0,0,7.5272,7.5318,7.5378,7.5495,7.5541,7.5639,7.5553,7.566,7.5733,7.5683,7.5821,7.5851,7.5921,7.608,7.6152,7.6111,7.6401,7.6312,7.6325,7.6333,7.6423,7.6453,7.6479,7.6134,7.6133,7.6131,0,0,7.5465,7.5509,7.563,7.5678,7.5749,7.5763,7.5793,7.5856,7.5874,7.6012,7.5977,7.6064,7.6221,7.6272,7.6319,7.6533,7.6502,7.6561,7.6671,7.6764,7.6788,7.681,7.6886,7.6914,7.6579,7.6579,7.6579,0,7.5553,7.5699,7.5695,7.5806,7.5859,7.5818,7.5941,7.5988,7.6084,7.6122,7.6074,7.6271,7.6315,7.6486,7.6539,7.6578,7.6611,7.6553,7.6785,7.6806,7.6826,7.6899,7.6928,7.6586,7.6585,7.6584,7.6584,0,7.5804,7.5906,7.5995,7.6089,7.6152,7.6268,7.6283,7.6348,7.6337,7.6357,7.6499,7.655,7.6647,7.6687,7.6678,7.6858,7.683,7.6784,7.6699,7.6863,7.6931,7.6959,7.6595,7.6593,7.6591,7.6589,0,0,7.6052,7.6143,7.6176,7.6219,7.6295,7.6373,7.6488,7.6583,7.6638,7.6706,7.6803,7.6937,7.6896,7.6949,7.6945,7.7026,7.7193,7.697,7.6972,7.701,7.7395,7.7429,7.7461,7.7173,7.7178,7.7182,7.7389,0,7.625,7.6451,7.6452,7.6637,7.6731,7.6695,7.6795,7.6853,7.6875,7.6959,7.6983,7.7079,7.7016,7.7048,7.7127,7.7156,7.727,7.7141,7.7263,7.7267,7.7246,7.7497,7.7533,7.7725,7.7416,7.742,7.7423,0,7.6507,7.6584,7.6779,7.6842,7.6882,7.6972,7.7059,7.7139,7.7205,7.7215,7.7275,7.7259,7.7377,7.7289,7.7451,7.7364,7.7414,7.7436,7.7443,7.7454,7.7355,7.7514,7.7786,7.7815,7.7466,7.7462,7.7459,0,7.6669,7.6821,7.6957,7.6995,7.7072,7.7136,7.7171,7.7231,7.7288,7.7365,7.7402,7.7491,7.754,7.761,7.7619,7.7554,7.7783,7.7695,7.7795,7.7795,7.7845,7.7841,7.8128,7.7878,7.7877,7.7877,7.7876,0,7.689,7.701,7.7031,7.7115,7.7249,7.725,7.7383,7.7413,7.7467,7.7556,7.7531,7.7615,7.7622,7.771,7.7718,7.7852,7.7874,7.7886,7.7887,7.7888,7.7887,7.792,7.7907,7.7884,7.7883,7.7881,7.788,0,7.7092,7.7111,7.7257,7.7319,7.7337,7.7434,7.7486,7.7567,7.7587,7.77,7.7727,7.7758,7.786,7.7876,7.7996,7.8001,7.8161,7.8148,7.8139,7.8137,7.8236,7.8227,7.8555,7.8598,7.832,7.8322,7.8325,0,7.7232,7.7324,7.7396,7.7454,7.7492,7.7586,7.7644,7.7649,7.7711,7.7793,7.7864,7.7963,7.8042,7.8207,7.824,7.8332,7.8321,7.843,7.8334,7.8333,7.8323,7.8317,7.8326,7.8448,7.8451,7.8453,7.8455,0,7.7477,7.7482,7.7567,7.7656,7.7726,7.7796,7.7863,7.7912,7.7925,7.7996,7.81,7.8162,7.8284,7.8383,7.8474,7.851,7.8486,7.8485,7.8513,7.8515,7.8506,7.8513,7.8189,7.8477,7.8475,7.8474,7.8472,7.8471,7.7652,7.7733,7.7796,7.7892,7.7942,7.8005,7.8084,7.8114,7.8201,7.83,7.8298,7.8412,7.8477,7.8596,7.8639,7.8729,7.8694,7.8734,7.8745,7.8755,7.8764,7.8493,7.8746,7.8745,7.8745,7.8744,7.8744,0,7.7896,7.7935,7.8024,7.8117,7.8193,7.8164,7.8236,7.8301,7.8402,7.8464,7.8543,7.8662,7.8759,7.8801,7.8895,7.8959,7.895,7.8984,7.8979,7.8988,7.879,7.8756,7.8989,7.8989,7.8989,7.8989,7.8989,7.8989,7.8032,7.8166,7.8179,7.8339,7.8378,7.8489,7.8533,7.8591,7.8641,7.8776,7.8856,7.8882,7.8937,7.9035,7.9123,7.9133,7.9169,7.9208,7.9212,7.9027,7.9002,7.8978,7.8946,7.9215,7.9216,7.9403,7.9404,7.9406]},{"header":{"parameterUnit":"m.s-1","parameterCategory":1,"la1":30.2991,"la2":30.254,"lo1":-89.0895,"lo2":-89.0444,"dy":0.0017,"dx":0.0017,"nx":28,"ny":28,"refTime":"2025-03-04T09:00:00:Z","depth":0,"parameterNumber":3,"parameterNumberName":"V-component_of_WINDS"},"data":[0,0,0,0,0,0,0,0,0,0,0,0,0,0,0,0,0,0,0,0,0,0,0,0,0,0,0,0,0,0,0,0,0,0,0,0,0,0,0,0,0,0,0,0,0,0,0,0,0,0,0,0,0,0,0,0,0,0,4.2462,4.2463,0,4.2591,4.2592,4.2594,4.2592,4.259,4.2589,4.2587,4.2721,4.2726,4.2731,0,0,0,0,0,0,0,0,0,0,0,0,0,4.2216,4.2221,4.2462,4.2463,4.2465,4.2591,4.2592,4.2594,4.2592,4.259,4.2588,4.2586,4.272,4.2726,4.2732,0,0,0,0,0,0,0,0,0,0,0,0,0,4.2332,4.2222,4.2462,4.2479,4.2482,4.259,4.2592,4.2595,4.2593,4.259,4.2588,4.2585,4.2718,4.2725,4.2733,4.2833,0,0,4.2757,4.276,0,0,0,0,0,0,0,0,4.2325,4.2341,4.2475,4.2478,4.2482,4.2573,4.2555,4.2675,4.2593,4.2551,4.2587,4.2584,4.2674,4.2685,4.2715,4.2839,4.2845,4.2757,4.2762,4.2765,4.2767,0,0,0,0,0,0,0,4.2317,4.2335,4.2513,4.2477,4.2481,4.2481,4.2495,4.2578,4.2626,4.2554,4.2555,4.257,4.2675,4.2708,4.2718,4.2847,4.2757,4.2764,4.2769,4.2772,4.3059,4.3062,0,0,0,0,0,0,4.2305,4.2329,4.2509,4.2517,4.2395,4.2488,4.2503,4.2546,4.2625,4.2634,4.2572,4.2569,4.2696,4.2709,4.2723,4.2846,4.2765,4.2773,4.2777,4.3056,4.306,4.3063,0,0,0,0,0,0,4.23,4.2321,4.2504,4.2423,4.2446,4.2495,4.2543,4.255,4.2582,4.2638,4.2646,4.2596,4.2694,4.2712,4.2805,4.285,4.2776,4.2783,4.3053,4.3057,4.3062,4.3091,0,0,0,0,0,0,4.2293,4.232,4.2357,4.2424,4.245,4.2583,4.2546,4.2554,4.2595,4.2593,4.2663,4.2672,4.2694,4.2794,4.2813,4.286,4.2789,4.3049,4.3055,4.306,4.3086,4.3096,4.3104,0,0,0,0,0,4.2284,4.2361,4.2359,4.2381,4.2499,4.2586,4.2601,4.2624,4.2599,4.2638,4.2674,4.2669,4.2842,4.2803,4.2825,4.2875,4.3046,4.3053,4.306,4.3082,4.3094,4.3104,0,0,0,0,0,0,4.23,4.237,4.2369,4.2469,4.2521,4.2585,4.2635,4.2636,4.2697,4.2692,4.2719,4.2735,4.2828,4.286,4.2816,4.2976,4.2941,4.2953,4.2951,4.2963,4.2971,4.2962,4.2796,0,0,0,0,0,4.2314,4.2378,4.2437,4.252,4.2546,4.2586,4.2625,4.2638,4.2693,4.2716,4.2758,4.2813,4.2879,4.2923,4.2987,4.3091,4.3106,4.3136,4.3145,4.3152,4.3161,4.322,4.3234,4.3085,4.3085,4.3085,0,0,4.2346,4.2393,4.2432,4.2524,4.2566,4.2633,4.2605,4.2676,4.2726,4.2727,4.2817,4.285,4.2913,4.3012,4.3058,4.3042,4.3206,4.316,4.3165,4.3172,4.3228,4.3242,4.3254,4.309,4.3089,4.3088,0,0,4.2438,4.2479,4.2553,4.2596,4.2659,4.2685,4.2703,4.2767,4.2789,4.288,4.2882,4.2942,4.3056,4.3101,4.3138,4.3247,4.3246,4.3267,4.3315,4.3371,4.3383,4.3393,4.3433,4.3447,4.3277,4.3277,4.3277,0,4.247,4.2569,4.2591,4.2663,4.2704,4.2707,4.2782,4.2823,4.2905,4.2933,4.2914,4.3057,4.31,4.321,4.3236,4.3266,4.3288,4.326,4.3379,4.339,4.34,4.3438,4.3453,4.3279,4.3279,4.3279,4.3278,0,4.2605,4.2675,4.2727,4.2805,4.2852,4.2925,4.2959,4.3004,4.3013,4.3041,4.3134,4.3185,4.326,4.3287,4.3296,4.3398,4.3387,4.3373,4.3339,4.3416,4.3452,4.3467,4.3282,4.3281,4.3281,4.328,0,0,4.2711,4.28,4.2819,4.2855,4.2925,4.298,4.3053,4.3126,4.3164,4.322,4.3283,4.338,4.3367,4.341,4.3425,4.3474,4.3558,4.3455,4.3457,4.3473,4.3675,4.3685,4.3702,4.3557,4.356,4.3563,4.367,0,4.2811,4.2941,4.2963,4.3078,4.3142,4.3146,4.321,4.3261,4.3289,4.3349,4.338,4.3449,4.3427,4.3453,4.3502,4.3538,4.3599,4.353,4.3618,4.362,4.3602,4.372,4.3732,4.383,4.3684,4.3686,4.3688,0,4.2945,4.3004,4.3125,4.3187,4.3215,4.3272,4.3341,4.3397,4.3455,4.3472,4.352,4.3529,4.3607,4.3568,4.3676,4.3629,4.3666,4.3689,4.3693,4.3703,4.3659,4.3734,4.3862,4.3877,4.3711,4.3709,4.3707,0,4.3011,4.3121,4.3207,4.3238,4.3312,4.3352,4.3385,4.344,4.3483,4.3543,4.3571,4.3639,4.3677,4.373,4.3758,4.3727,4.3864,4.3828,4.3881,4.388,4.391,4.3908,4.4047,4.3933,4.3933,4.3932,4.3932,0,4.3121,4.3195,4.3238,4.3291,4.3375,4.3399,4.3481,4.3513,4.3562,4.3623,4.363,4.3686,4.3719,4.3781,4.3803,4.3889,4.3906,4.3923,4.3928,4.3923,4.3921,4.3948,4.3942,4.3936,4.3935,4.3935,4.3934,0,4.3209,4.324,4.3335,4.3398,4.3415,4.3474,4.3528,4.358,4.3608,4.3684,4.3704,4.3748,4.3821,4.3853,4.3943,4.3958,4.4057,4.4057,4.4037,4.4039,4.4091,4.4086,4.4253,4.4277,4.4146,4.4147,4.4148,0,4.3277,4.3334,4.3402,4.3443,4.3477,4.3542,4.3585,4.3612,4.3656,4.3726,4.3771,4.3843,4.3903,4.402,4.4061,4.413,4.4132,4.4186,4.4142,4.4135,4.4134,4.413,4.4137,4.4194,4.4195,4.4196,4.4197,0,4.3395,4.3408,4.3469,4.3537,4.3588,4.3642,4.3695,4.3728,4.3763,4.3813,4.3888,4.3934,4.4026,4.4099,4.417,4.4205,4.4208,4.421,4.4226,4.4222,4.4208,4.4217,4.406,4.4206,4.4205,4.4205,4.4204,4.4204,4.3476,4.3527,4.3583,4.3651,4.3694,4.3744,4.3796,4.383,4.3893,4.3969,4.3981,4.406,4.4117,4.4214,4.4251,4.4314,4.4301,4.4325,4.4331,4.4336,4.434,4.4198,4.4327,4.4327,4.4327,4.4327,4.4327,0,4.3595,4.3631,4.3693,4.3768,4.3822,4.3818,4.3877,4.3923,4.3992,4.4045,4.4103,4.4189,4.426,4.4306,4.4377,4.4419,4.4422,4.4437,4.4435,4.4443,4.4347,4.4326,4.4434,4.4434,4.4434,4.4434,4.4433,4.4433,4.3663,4.3749,4.3769,4.3877,4.3913,4.399,4.4024,4.407,4.4112,4.4207,4.4266,4.4295,4.4346,4.4421,4.4486,4.4498,4.4524,4.454,4.4551,4.4461,4.445,4.4439,4.442,4.4545,4.4545,4.4642,4.4643,4.4644]}]]